Regional Weather Roundup
Issued by NWS

Home | Current Version | Previous Version | Text Only | Print | Product List | Glossary On
Versions: 1 2 3 4 5 6 7 8 9 10 11 12 13 14 15 16 17 18 19 20 21 22 23 24 25 26 27 28 29 30 31 32 33 34 35 36 37 38 39 40 41 42 43 44 45 46 47 48 49 50
000
ASUS43 KLSX 240807
RWRMO

WEATHER SUMMARY FOR MISSOURI
NATIONAL WEATHER SERVICE SPRINGFIELD MO
200 AM CST SAT FEB 24 2018

NOTE: "FAIR" INDICATES FEW OR NO CLOUDS BELOW 12,000 FEET WITH NO
       SIGNIFICANT WEATHER AND/OR OBSTRUCTIONS TO VISIBILITY.
       CURRENT SKY AND/OR WEATHER CONDITIONS ARE NOT AVAILABLE FOR
       CHILLICOTHE AND FARMINGTON.

MOZ001>031-035>038-043-044-053-054-240900-
...NORTHERN AND WESTERN MISSOURI...

CITY           SKY/WX    TMP DP  RH WIND       PRES   REMARKS
KANSAS CTY INT LGT RAIN  33  32  96 NE13      30.06F FOG     WCI  24
KANSAS C DTWN  LGT RAIN  36  32  85 NE8       30.07F FOG     WCI  30
LEE`S SUMMIT   LGT RAIN  34  34 100 NE16      30.06F FOG     WCI  24
ST JOSEPH      CLOUDY    32  31  96 NE13      30.11F FOG     WCI  22
CHILLICOTHE      N/A     33  30  88 NE12G20   30.12F WCI  24
KIRKSVILLE     MIX PCPN  32  31  96 NE14      30.13F FOG     WCI  22

$$
MOZ066>068-077>081-088>096-101>105-240900-
...SOUTHWEST MISSOURI...

CITY           SKY/WX    TMP DP  RH WIND       PRES   REMARKS
SPRINGFIELD    RAIN      51  50  96 SE18G29   29.94F FOG
JOPLIN         CLOUDY    39  39 100 NE5       29.99F

$$
MOZ032>034-039>042-045>050-055>058-069>072-240900-
...CENTRAL MISSOURI...

CITY           SKY/WX    TMP DP  RH WIND       PRES   REMARKS
COLUMBIA       CLOUDY    37  36  96 E17       30.04F WCI  27
JEFFERSON CITY LGT RAIN  39  36  89 E10G23    30.06F
ROLLA          LGT RAIN  42  42 100 E15G22    30.04F
SEDALIA        HVY RAIN  37  37 100 NE13      30.06F FOG     WCI  29
WHITEMAN AFB   RAIN      35  34  95 NE12      30.01F FOG     WCI  27
WARRENSBURG    DRIZZLE   34  34 100 N9        30.06F WCI  26
OSAGE BEACH    CLOUDY    40  39  97 NE5       30.03F FOG

$$
MOZ051-052-059>065-240900-
...EAST CENTRAL MISSOURI...

CITY           SKY/WX    TMP DP  RH WIND       PRES   REMARKS
ST LOUIS INTL  RAIN      39  39 100 E7        30.13F FOG
SPIRIT OF STL  LGT RAIN  40  40 100 NE9       30.12F
ST CHARLES     LGT RAIN  39  37  92 NE8       30.14F

$$
MOZ072>076-082>087-097>100-106>115-240900-
...SOUTH CENTRAL AND SOUTHEAST MISSOURI...

CITY           SKY/WX    TMP DP  RH WIND       PRES   REMARKS
CAPE GIRARDEAU CLOUDY    50  47  89 E5        30.10F
FARMINGTON     LGT RAIN  44  43  96 E12       30.09F
POPLAR BLUFF   CLOUDY    51  50  96 N5        30.08F
WEST PLAINS    CLOUDY    47  46  97 SE12      30.03F

$$



USA.gov is the U.S. government's official web portal to all federal, state and local government web resources and services.